Location: Bay Shore Mobile Home Park
(38.5762°N, 75.0841°W)
Time: 08:05:34
(UTC+00:00)

Sich 1 Rocket - Pass Details

Date: 15 November 2025
Orbit: 611 x 646 km, 82.5° (Epoch: 05 December)

Event Time Altitude Azimuth Distance (km) Brightness Sun altitude
Rises 23:32:07 0° 180° (S) 2,925 7.1 -20.6°
Reaches altitude 10° 23:34:21 10° 178° (S) 2,025 6.3 -21.0°
Maximum altitude 23:38:49 71° 95° (E) 683 3.5 -21.9°
Enters shadow 23:39:58 48° 28° (NNE) 844 3.9 -22.1°
